Wind_Speed
12 13 13 14 14 15 16 16 16 16 16 16 17 17 18 19 19 18 16 15 14 15 16 17 17 17 17 16 15 14 13 12 10 8 6 5 5 4 3 3 4 4 4 4 4 4 4 4 5 6 6 7 8 9 10 10 11 12 12 12 11 10 8 7 7 8 6 5 6 8 8 6 6 7 7 7 7 7 7 7 8 8 9 9 10
12 12 13 14 15 15 16 16 16 16 16 16 16 17 17 17 17 16 15 15 14 14 16 16 15 14 13 11 10 9 8 6 4 3 2 2 1 1 2 3 4 4 4 4 4 3 3 4 5 5 5 6 7 8 10 11 12 13 13 12 11 10 8 8 8 9 8 5 4 6 6 5 4 5 5 5 4 4 4 4 4 5 5 6 6
13 12 12 13 14 15 15 16 16 16 16 15 15 16 16 16 16 15 14 14 13 13 13 13 11 11 9 7 6 4 3 4 4 5 5 5 5 5 5 5 5 5 5 5 4 3 4 4 5 6 6 6 7 8 10 11 12 12 12 11 10 9 9 9 9 9 9 7 5 4 5 5 6 8 8 7 6 4 4 4 4 4 4 4 5
13 13 12 12 13 13 14 15 15 15 16 16 15 15 15 15 15 15 14 13 13 12 12 11 10 8 6 3 3 4 5 7 9 9 9 8 8 7 7 6 7 6 6 6 5 5 5 6 6 7 9 9 9 10 11 11 10 10 9 9 9 9 9 9 10 11 12 11 8 6 8 9 10 10 11 10 9 8 7 8 7 7 8 8 9
14 14 13 13 12 12 12 12 13 14 14 15 15 15 15 15 15 14 14 14 13 13 12 11 8 6 5 7 9 10 10 12 13 12 10 10 10 9 8 8 8 8 8 8 7 7 7 8 9 10 11 12 11 10 9 9 8 8 8 8 9 9 9 9 11 13 14 14 11 9 10 12 12 12 12 11 10 9 9 9 9 9 10 11 12
18 17 16 15 13 12 12 11 11 11 12 13 14 15 15 15 15 15 15 15 15 15 14 13 12 14 15 16 16 16 17 17 15 13 11 10 10 11 11 11 11 10 11 10 10 10 11 11 12 13 13 13 11 9 8 7 7 7 7 8 9 10 11 12 13 14 15 15 14 12 11 11 12 14 14 13 10 9 9 9 10 12 13 13 14
22 20 19 18 17 15 14 13 12 11 11 11 12 13 14 15 15 16 16 16 16 16 16 17 19 21 21 20 18 18 19 20 17 15 13 12 13 14 15 14 14 14 15 14 13 13 13 13 13 13 13 12 10 8 7 7 8 8 9 10 11 12 13 14 15 16 16 16 15 15 13 12 11 11 12 13 12 10 10 11 12 14 15 15 15
25 24 23 21 20 19 17 16 15 14 13 12 12 12 12 13 14 14 15 16 17 18 18 18 20 21 21 23 24 23 23 23 20 17 15 14 16 17 18 18 17 17 17 16 15 13 13 13 13 12 12 11 10 9 9 9 10 12 13 13 14 15 15 16 16 16 17 17 17 17 16 15 13 12 11 12 12 11 12 13 14 15 16 16 16
29 28 27 25 23 21 20 19 18 17 16 15 14 13 13 12 12 12 13 13 15 16 17 17 19 21 21 24 26 26 24 21 19 18 17 16 16 17 17 17 17 17 16 14 13 13 13 13 12 11 11 11 11 11 12 13 14 16 17 17 17 17 17 18 18 17 17 17 18 18 18 19 18 18 16 15 13 13 15 17 18 17 17 17 18
30 30 29 27 26 24 23 22 21 19 18 18 17 16 15 15 14 13 13 13 13 14 15 15 17 19 20 21 22 23 23 20 18 19 18 17 16 16 17 17 16 16 15 14 14 15 15 15 14 13 13 14 14 15 16 18 19 20 21 21 21 21 20 20 20 20 19 19 19 19 20 20 21 21 21 20 19 18 19 20 21 20 18 17 19
31 31 30 29 28 27 27 25 24 22 20 19 19 18 18 18 17 17 17 16 15 15 16 16 17 18 19 19 20 20 21 21 21 22 21 19 18 19 19 19 19 18 17 17 18 19 19 19 18 18 18 18 18 19 20 22 22 22 23 23 24 23 23 22 22 22 21 21 20 21 21 21 21 21 22 22 22 22 22 23 23 23 21 20 22
33 33 32 30 29 29 28 26 24 22 21 21 20 20 21 21 20 20 20 19 19 19 19 18 18 19 19 20 20 20 20 21 22 24 24 23 21 21 22 22 22 21 20 20 20 22 23 23 23 22 22 22 22 23 23 24 24 24 24 24 25 25 25 25 24 24 24 23 23 23 23 23 23 23 23 23 24 24 25 25 25 25 25 25 26
36 35 34 33 32 32 30 27 25 24 23 22 22 22 22 22 22 22 22 23 23 22 21 21 21 21 21 21 21 21 21 22 22 24 25 25 24 24 24 24 23 22 22 21 21 23 24 25 25 24 24 24 25 25 25 25 25 26 26 26 27 27 27 28 27 27 26 26 26 25 25 26 26 25 25 25 26 26 27 28 28 29 29 29 29
38 37 36 35 35 34 31 29 29 27 25 23 23 24 25 24 24 24 25 26 27 26 25 24 24 24 23 23 22 22 23 24 24 25 26 27 26 26 26 26 25 24 24 24 25 26 27 27 27 27 26 27 27 27 27 27 27 28 28 28 29 29 29 30 30 30 30 29 29 28 28 28 28 28 28 28 28 28 28 29 29 31 32 33 33
41 40 39 38 37 35 33 32 32 29 26 25 25 25 26 27 26 27 28 28 29 30 29 29 28 28 27 26 26 26 27 27 27 28 28 29 29 29 29 29 28 28 28 29 29 30 30 31 31 30 30 30 30 30 30 30 30 31 31 31 32 32 32 32 33 33 34 34 33 33 32 31 31 31 31 31 31 31 31 31 31 32 33 35 36
44 44 43 40 39 37 35 34 33 30 28 27 27 27 27 27 27 29 30 31 32 33 33 33 32 31 31 31 31 31 31 31 31 32 32 32 33 33 33 33 33 32 32 32 33 33 34 34 35 34 33 32 32 33 33 33 33 33 33 33 34 35 35 36 36 36 37 37 38 38 37 36 35 35 35 35 35 35 35 35 35 35 36 36 37
44 46 46 44 41 39 37 36 34 33 31 30 28 28 29 29 30 32 33 34 35 36 37 37 36 35 35 35 35 35 36 35 35 36 36 36 37 37 37 37 37 36 36 36 37 37 38 38 38 38 37 36 36 36 36 37 38 38 38 37 37 38 39 39 39 39 39 40 40 40 40 39 39 39 39 40 40 40 40 40 40 41 41 41 41
46 47 48 47 44 42 40 39 38 37 35 34 31 29 29 31 34 35 35 35 37 39 39 38 37 37 37 38 38 38 38 38 39 39 40 41 41 41 41 41 40 39 38 39 40 41 41 41 40 40 40 40 41 40 40 41 43 43 42 42 41 42 42 42 43 42 42 42 42 41 41 41 41 42 43 44 44 45 45 45 46 46 46 47 47
49 50 51 52 49 46 44 43 42 40 39 37 35 33 31 32 35 36 36 36 38 40 39 37 36 37 37 39 39 38 38 38 38 39 40 42 44 45 45 45 44 42 42 44 46 45 44 44 43 41 41 42 43 44 45 46 47 45 44 44 43 43 43 43 44 45 45 45 45 45 45 45 46 47 48 49 50 50 50 51 51 51 51 51 52
52 52 53 53 52 50 48 46 45 43 42 40 38 36 34 35 38 42 43 43 43 43 41 39 38 38 39 40 40 40 41 42 42 41 39 39 40 43 45 45 45 44 44 47 47 45 44 45 45 44 44 45 46 48 50 51 50 48 47 47 47 46 46 45 45 46 47 48 48 49 49 50 50 51 53 55 55 56 56 56 56 56 56 56 56
56 56 57 56 55 53 49 46 46 47 46 43 40 39 39 39 42 46 47 47 47 46 45 44 43 43 43 44 43 43 42 42 44 44 41 38 38 41 44 46 46 44 45 47 48 47 47 47 46 46 46 48 50 51 52 53 53 53 53 53 53 52 52 52 51 51 51 51 52 52 53 53 54 55 58 59 60 60 60 60 60 60 60 60 60
62 62 62 60 58 56 51 47 47 48 47 45 44 44 45 45 47 49 47 47 48 48 48 47 45 44 44 44 43 43 41 40 41 42 43 42 42 44 46 48 49 49 49 49 49 50 50 50 48 48 49 50 52 54 55 56 58 58 58 57 56 56 57 58 58 57 56 56 56 57 57 58 59 60 62 62 63 63 63 64 64 64 64 65 65
68 66 63 62 62 61 57 53 51 49 48 48 47 47 49 50 51 50 48 48 51 53 53 50 47 45 45 43 44 45 46 46 45 45 46 48 48 50 52 52 53 53 52 51 50 51 51 51 51 51 52 53 55 56 58 60 62 61 60 58 58 58 59 61 61 60 59 58 58 59 61 62 64 65 65 65 65 65 65 66 67 68 69 70 70
71 69 66 65 65 64 61 57 53 51 51 50 49 51 53 52 51 51 50 52 55 56 56 55 53 51 49 47 46 47 47 47 48 49 51 53 54 55 57 58 57 56 55 55 54 55 56 57 57 58 60 61 63 64 66 67 68 68 67 66 65 65 64 64 64 64 63 62 62 62 64 65 67 68 68 68 68 68 68 69 70 71 72 73 74
65 69 70 70 69 66 63 60 56 55 56 54 53 57 58 54 50 49 49 51 54 55 56 57 56 54 53 52 52 51 48 48 52 55 57 57 59 60 61 62 62 61 60 60 61 63 65 67 68 69 70 71 72 72 73 74 74 74 73 73 72 71 71 70 70 69 69 69 68 68 69 69 70 70 71 72 72 72 73 73 74 75 75 76 77
56 62 68 72 70 67 64 63 62 63 62 59 57 58 59 55 52 50 49 50 52 54 56 57 56 56 55 55 55 55 53 52 55 59 60 60 61 62 62 63 64 65 66 69 71 73 75 75 74 75 75 76 76 77 77 78 78 78 78 77 76 75 75 75 75 75 75 74 74 74 75 75 76 76 77 77 77 78 80 81 82 82 82 82 82
56 59 64 69 70 69 67 66 67 68 66 62 60 60 59 57 56 56 55 54 54 53 54 55 55 55 55 55 55 54 54 53 54 57 59 59 59 60 62 65 68 71 74 76 77 78 79 78 78 77 77 78 78 79 79 80 80 81 81 80 80 80 80 80 80 80 80 80 80 80 80 80 81 82 82 82 84 86 88 89 90 89 89 89 89
60 62 64 66 67 69 70 71 72 71 68 65 63 63 62 61 62 63 63 63 62 62 62 62 62 61 61 61 59 57 56 55 55 56 56 56 57 61 65 70 74 76 78 78 78 78 79 80 80 80 79 79 80 80 81 82 83 83 83 83 82 82 82 81 81 81 82 82 83 84 85 87 88 89 89 91 93 95 96 96 96 95 94 93 92
64 63 65 66 65 65 67 71 74 75 73 71 70 68 66 66 68 70 71 71 72 73 72 71 70 69 68 67 66 65 65 64 65 65 66 67 69 72 74 76 77 77 77 77 78 78 80 82 84 84 84 84 84 85 86 86 87 87 87 86 85 85 85 85 85 86 87 88 90 92 94 95 96 97 98 99 100 101 102 101 99 97 95 94 93
70 66 67 68 67 65 65 68 72 75 75 75 75 74 72 71 72 72 73 74 76 77 76 75 74 74 73 72 72 71 71 71 72 73 75 77 78 79 79 78 78 77 77 78 80 83 85 87 87 87 87 88 89 89 90 90 90 89 89 89 89 90 91 92 94 95 96 97 98 100 101 102 103 103 104 104 105 104 103 102 100 99 97 97 96
79 75 72 71 70 69 68 68 69 73 77 78 77 78 77 76 75 74 74 75 77 79 80 80 79 77 76 76 76 76 74 73 73 74 76 78 79 80 80 79 78 78 79 81 84 87 89 89 89 89 90 91 92 92 92 92 92 92 92 93 94 95 97 99 100 101 102 103 104 105 106 107 108 109 109 108 107 105 104 103 101 100 99 98 98
86 83 81 78 75 73 72 72 71 72 75 78 79 80 80 80 80 79 78 79 79 80 80 81 81 80 79 79 79 78 77 75 75 76 77 79 80 81 81 81 80 81 83 86 88 89 89 89 90 91 92 93 94 94 93 93 93 94 95 96 97 99 101 102 104 105 106 107 108 109 111 111 112 111 110 109 107 105 104 103 103 102 101 101 101
89 89 88 86 83 78 75 74 74 74 75 77 78 79 80 81 82 82 82 83 83 84 84 83 83 83 82 82 81 81 80 79 79 80 80 81 82 83 83 84 86 88 91 93 93 91 91 92 93 93 94 95 95 95 94 94 95 96 96 97 99 101 103 105 107 108 110 111 112 113 113 113 112 112 111 109 108 107 106 106 106 105 106 106 106
90 91 92 91 90 87 81 77 75 75 76 77 78 80 80 81 82 83 84 86 87 87 87 87 86 86 86 85 85 85 85 85 85 86 87 88 89 90 91 92 93 95 97 97 97 96 96 97 97 98 98 98 98 98 98 98 98 99 99 100 102 105 107 110 111 113 114 115 115 115 115 115 114 114 114 113 113 112 112 111 111 111 111 112 112
87 89 92 93 94 94 92 88 84 81 79 79 80 80 81 82 82 83 84 86 87 88 88 89 89 89 89 89 90 90 90 91 91 92 92 92 93 94 95 96 98 99 100 101 101 101 101 102 102 102 102 102 102 102 102 103 103 103 104 106 108 111 113 114 115 116 116 117 117 117 117 118 118 118 118 118 118 117 118 118 118 118 118 118 118
84 85 88 91 93 95 96 95 93 90 88 87 85 85 85 85 85 86 86 87 88 89 90 91 92 92 92 92 92 92 93 93 94 95 95 95 96 97 98 100 102 103 104 104 104 104 104 104 105 105 106 106 106 106 107 107 107 108 110 112 114 116 117 117 118 118 119 119 120 120 121 121 121 121 121 121 121 121 122 122 122 123 123 123 124
84 85 86 87 90 92 93 94 94 94 93 93 92 91 91 91 91 91 91 91 91 92 93 94 95 96 95 94 94 93 93 94 95 96 97 98 99 100 101 102 103 104 104 104 104 104 105 106 107 108 108 109 109 110 110 111 111 113 116 118 119 120 120 121 122 122 123 123 124 124 124 125 125 125 125 126 126 126 127 127 127 127 127 128 128
84 86 88 87 87 88 89 90 91 92 93 94 94 94 93 94 94 94 94 94 94 95 96 97 98 99 98 98 98 98 98 98 99 99 100 100 101 101 101 102 102 102 103 104 105 106 107 108 110 111 112 113 113 113 114 114 116 119 121 122 123 124 124 125 126 126 127 128 128 128 128 128 129 129 129 130 130 131 131 132 132 132 132 132 133
84 85 87 89 89 88 87 87 88 89 90 92 93 94 94 94 95 95 96 96 96 97 98 99 100 100 100 101 101 102 102 103 103 103 102 102 102 102 102 102 103 104 106 107 108 109 110 111 113 114 115 116 117 117 118 120 122 124 126 127 127 128 128 129 130 130 131 131 132 132 132 132 133 133 133 134 134 135 136 136 136 136 137 137 138
85 84 85 86 88 87 86 86 85 86 87 88 90 91 92 93 94 94 96 97 99 100 101 101 101 100 100 100 100 101 101 101 101 101 101 102 102 102 103 103 104 105 107 109 111 112 113 114 115 115 116 117 118 120 122 125 127 129 130 131 132 132 132 133 133 133 133 134 134 134 135 135 136 136 137 137 138 138 139 140 140 141 141 142 143
87 85 84 85 86 85 84 83 83 82 83 84 86 87 89 90 91 92 93 94 97 99 101 102 102 103 103 102 101 101 100 100 100 100 100 101 102 102 102 103 104 105 107 108 110 111 113 114 115 116 117 119 121 123 126 129 130 132 133 133 133 134 134 135 135 135 135 135 136 136 137 137 138 139 139 140 141 142 143 144 144 145 146 147 148
90 88 87 86 86 85 85 84 83 82 81 81 82 83 84 85 87 88 89 91 92 94 95 96 98 99 100 100 101 101 101 101 101 101 101 102 103 103 105 106 107 108 110 111 113 115 116 118 119 120 122 124 126 128 129 130 131 132 133 133 134 135 135 136 137 137 137 138 138 139 140 141 142 143 143 144 146 147 148 149 150 152 153 155 157
90 91 90 88 87 86 86 86 85 84 83 82 81 81 81 82 84 85 86 87 88 89 90 91 91 93 94 95 96 97 98 99 100 101 102 103 104 105 107 108 110 111 113 115 117 118 120 121 122 124 125 127 128 129 130 131 132 132 133 134 136 137 137 139 139 140 141 142 143 144 145 146 148 149 150 151 153 155 157 159 161 163 165 166 166
90 90 91 90 89 88 87 86 85 85 84 83 82 81 81 82 83 86 88 89 90 91 91 92 92 93 93 94 95 96 97 99 100 101 102 104 105 107 108 110 111 113 115 116 117 119 120 121 123 124 126 127 129 130 131 132 134 136 137 139 141 142 143 145 146 147 148 149 150 151 153 154 156 158 160 162 164 166 167 168 168 167 165 163 160
88 89 90 90 90 89 88 87 87 86 85 84 83 82 81 81 82 83 86 89 92 95 97 98 99 100 100 101 102 102 102 103 104 104 105 107 108 109 110 112 113 115 116 118 119 120 122 124 125 127 129 131 133 134 136 138 140 142 144 146 148 149 151 152 153 154 156 157 159 160 162 164 165 167 168 168 168 167 164 162 158 154 150 146 142
86 87 88 89 89 90 90 90 89 89 89 88 87 86 85 85 84 85 85 87 89 92 95 98 100 103 105 106 108 109 110 110 111 111 112 113 114 115 117 118 119 121 122 123 125 126 128 130 131 133 135 137 139 141 142 144 146 148 150 152 154 156 158 159 160 162 163 164 165 165 166 166 166 165 164 161 158 155 150 145 141 136 131 127 123
83 84 85 86 87 89 89 90 91 91 91 91 91 91 90 90 89 89 88 88 89 90 91 93 96 98 101 104 106 109 110 112 114 115 117 118 120 121 123 125 126 127 129 130 131 133 134 135 137 139 141 142 144 145 147 148 150 152 153 155 156 158 159 160 160 160 161 160 160 160 159 157 156 153 150 146 141 137 132 127 123 119 115 111 107
79 80 81 82 83 84 85 86 87 89 90 91 91 92 92 92 92 92 92 92 92 93 93 94 95 96 98 100 102 104 106 108 110 112 114 116 118 120 122 123 125 127 128 130 132 133 134 136 137 139 140 141 143 144 146 147 148 150 151 152 153 154 154 154 153 152 151 150 149 148 146 143 140 136 132 128 124 120 116 112 108 104 101 97 94
76 76 77 78 79 80 81 82 83 85 86 87 88 89 90 91 92 92 93 94 95 95 96 97 98 99 100 101 102 103 105 106 108 109 111 113 114 116 118 120 121 123 125 126 128 129 131 132 133 135 136 138 139 141 142 144 145 146 147 147 147 146 146 144 143 141 139 137 134 132 129 126 123 120 116 113 109 106 102 99 95 92 89 87 85
74 75 75 76 77 78 78 79 81 82 83 84 85 86 87 89 90 91 92 94 95 97 98 99 100 102 103 104 105 107 108 110 111 113 114 115 117 118 119 120 121 122 123 124 125 127 129 130 132 133 134 135 136 136 137 137 138 138 137 137 136 135 133 131 129 127 124 122 120 117 115 113 110 107 103 100 97 94 91 89 87 84 82 81 79
71 73 74 75 76 77 77 78 80 82 83 84 85 86 87 88 89 91 92 94 96 98 99 101 103 104 105 106 108 109 110 112 113 114 114 115 115 115 115 116 116 117 119 120 122 124 125 127 128 128 129 129 129 128 128 127 127 126 125 124 123 122 120 118 116 114 112 110 108 106 104 101 99 96 93 90 88 86 85 83 81 79 78 76 74
Wind_Direction
146 152 156 159 162 163 163 165 165 163 162 159 157 156 156 156 156 158 158 157 153 153 154 153 151 148 146 145 143 141 137 135 134 134 134 130 122 113 93 59 41 29 24 27 29 25 25 26 24 28 29 21 15 13 12 13 14 13 10 7 4 3 3 1 1 12 26 38 44 35 22 30 51 52 51 53 56 65 70 75 80 79 76 73 70
149 152 156 161 165 167 168 167 167 167 165 163 162 161 161 162 162 162 161 159 156 156 158 160 159 156 154 153 152 151 150 151 159 173 185 193 236 308 329 339 342 343 346 350 353 350 351 354 351 354 0 358 355 354 352 353 356 357 356 353 351 351 349 340 340 350 355 357 20 20 5 4 14 8 4 6 14 33 39 43 52 58 59 58 51
159 157 158 160 164 169 171 172 171 170 169 167 165 164 163 164 164 165 164 163 163 164 166 168 169 171 173 174 177 187 208 228 248 265 271 270 276 282 290 298 304 309 318 323 320 320 323 324 326 327 331 334 334 336 338 340 344 347 348 349 349 349 346 342 345 351 351 354 4 354 330 324 324 321 318 314 311 319 327 331 341 352 356 0 0
174 169 166 164 164 166 170 174 175 175 174 172 170 168 167 166 165 166 166 166 165 165 168 172 174 177 180 191 235 264 274 272 267 267 271 272 270 271 272 275 280 287 296 301 298 296 298 299 303 309 316 318 320 323 327 331 337 342 346 350 352 353 354 352 352 351 352 0 8 345 313 308 308 306 307 308 303 301 303 301 304 315 318 321 324
194 187 182 177 172 168 167 170 174 177 179 180 179 178 177 175 173 172 172 173 173 170 169 166 161 170 191 209 224 225 230 247 256 257 259 265 268 268 268 268 271 277 284 287 287 287 290 290 292 299 306 311 314 319 323 327 333 340 345 348 348 348 349 348 344 342 344 350 354 342 318 312 313 311 313 316 308 300 301 303 309 318 321 321 322
208 204 199 196 192 187 180 174 170 173 178 182 186 188 189 188 186 184 184 184 185 181 176 174 182 199 208 212 219 219 219 228 239 241 242 252 264 268 268 268 268 271 275 278 280 281 283 285 288 293 299 303 308 315 322 323 324 329 332 332 331 330 329 327 326 327 330 334 337 335 325 317 317 316 316 319 313 302 302 308 315 322 325 326 326
213 215 213 210 209 208 203 197 189 183 180 181 184 189 193 196 196 197 197 196 195 192 189 192 200 208 213 214 217 223 227 230 235 242 244 250 261 266 266 267 268 270 272 273 274 275 278 280 284 288 292 294 298 302 306 306 308 312 314 313 313 314 314 314 317 318 321 324 326 325 322 315 313 312 310 307 300 295 300 309 314 316 318 320 321
215 218 220 219 219 218 218 215 211 206 200 193 190 190 192 195 197 200 202 203 203 203 201 202 208 212 216 218 218 222 229 234 238 243 245 249 257 261 262 264 265 267 269 270 271 273 274 277 280 284 286 288 289 290 291 293 296 301 305 306 306 307 308 309 311 313 317 320 320 318 317 313 309 306 304 297 286 281 289 297 300 301 303 308 313
219 219 221 223 225 225 226 226 225 222 217 212 207 204 202 200 200 201 204 204 205 208 208 207 210 214 219 223 224 225 229 236 239 239 240 246 253 254 255 257 259 261 264 266 268 269 271 274 278 281 283 281 281 284 287 290 293 297 300 303 303 303 303 304 305 308 312 315 315 314 314 313 311 309 307 303 293 280 278 281 286 292 298 304 309
228 226 225 225 227 229 230 231 231 230 228 225 222 221 218 215 214 213 215 213 212 214 214 211 213 217 222 228 230 230 233 237 241 241 242 246 249 249 250 251 252 255 259 261 264 266 269 272 275 276 276 276 277 279 283 286 289 293 296 298 299 299 299 300 301 303 305 306 307 308 309 311 311 308 305 303 298 291 285 284 288 293 293 293 300
235 234 232 230 230 231 232 233 234 234 234 233 232 230 228 227 225 225 227 226 224 225 226 224 224 226 229 235 238 239 240 241 242 244 248 251 250 250 252 253 254 256 258 260 263 264 267 271 273 273 273 274 275 277 279 283 287 289 291 293 295 297 298 299 300 300 301 301 301 302 303 304 305 304 303 301 299 296 292 288 288 289 286 285 292
236 237 238 236 236 237 237 237 239 240 241 241 240 238 236 234 232 231 233 234 232 231 232 233 236 237 239 241 243 246 248 247 245 245 249 254 256 256 257 259 261 263 263 264 267 270 273 276 277 276 276 277 278 278 280 282 285 287 288 290 292 294 296 298 298 298 298 299 298 298 297 298 298 299 300 300 299 298 296 292 289 286 284 284 288
238 238 239 238 238 240 241 242 243 243 243 244 246 247 246 244 241 238 239 240 240 239 238 239 241 244 246 248 249 251 253 254 252 251 254 258 261 263 264 265 267 268 268 270 274 278 280 281 281 281 280 279 278 278 280 281 283 284 286 286 287 289 292 293 294 294 295 295 295 295 294 294 294 294 294 294 295 296 296 295 293 289 287 285 285
240 239 238 239 240 241 242 244 244 242 243 245 249 252 253 252 249 246 245 246 247 247 247 248 249 251 253 256 257 258 258 259 259 259 261 262 264 266 267 268 268 268 268 271 275 279 281 281 281 280 278 276 274 275 277 278 280 282 284 285 287 287 288 289 290 292 293 293 293 293 293 292 293 293 293 292 292 292 292 292 292 291 290 288 287
240 240 239 239 243 244 244 246 247 246 247 248 250 254 255 254 253 251 251 251 251 251 252 254 256 258 260 261 262 262 262 262 262 262 263 264 265 266 267 269 269 269 270 273 277 279 280 280 280 279 277 275 275 276 276 277 279 281 283 284 285 287 287 287 288 289 290 291 292 293 293 292 292 293 293 292 292 291 291 290 289 288 288 288 289
241 243 242 241 242 244 245 246 247 248 249 250 250 252 254 256 257 257 256 256 255 254 254 254 256 259 262 264 265 265 265 264 264 264 265 265 266 267 268 270 270 271 272 274 276 277 277 277 278 278 278 278 280 281 280 280 281 282 283 284 284 285 285 285 286 286 287 288 290 291 291 292 293 293 293 292 291 290 290 289 287 286 285 285 285
243 245 245 244 242 243 245 245 244 244 247 250 250 251 253 255 258 259 259 259 258 257 256 256 258 261 263 265 267 268 269 268 266 266 266 266 266 267 268 269 271 273 274 275 276 277 277 278 277 277 277 279 282 284 284 285 285 285 285 285 285 285 286 286 286 285 285 285 286 288 290 291 292 293 293 293 293 292 291 290 289 288 287 285 284
246 246 246 246 244 243 244 245 243 243 246 248 250 251 253 256 260 262 261 259 258 257 256 257 260 264 266 266 266 268 269 270 270 270 270 270 269 268 267 268 269 270 272 273 275 276 277 278 277 276 275 277 280 281 283 287 288 287 286 285 285 285 285 285 286 286 286 286 285 285 286 288 289 291 292 292 292 292 292 291 290 289 288 287 287
245 246 247 246 244 243 244 244 243 243 244 246 248 252 257 261 264 263 258 253 251 251 253 255 258 261 264 265 266 267 269 270 270 271 273 275 274 271 268 268 268 268 270 272 273 274 276 278 277 276 275 275 277 278 281 285 286 285 284 283 283 283 284 284 284 285 285 285 285 284 284 285 287 289 290 290 290 290 290 289 288 288 287 286 286
237 241 243 244 243 242 243 244 244 244 246 246 246 249 255 260 262 260 256 252 251 251 252 254 255 255 258 262 266 269 269 268 266 267 270 274 276 274 272 271 270 269 269 270 273 275 278 279 279 278 277 277 277 278 280 282 282 282 282 283 283 283 284 285 285 285 284 284 283 283 283 284 286 288 290 291 291 291 290 290 289 288 287 286 285
235 236 238 241 242 241 241 243 245 245 248 250 248 247 248 252 256 257 255 253 254 255 255 254 254 255 256 259 264 269 271 269 266 265 266 268 269 269 269 269 270 270 271 274 278 281 282 281 281 280 279 278 278 278 279 279 280 281 283 284 284 284 285 286 286 285 284 283 283 282 282 283 285 288 290 291 291 291 291 291 290 290 289 288 287
236 236 237 239 240 239 240 245 247 246 247 248 246 245 247 251 254 255 253 251 252 256 257 255 254 255 256 258 262 265 266 265 264 264 264 264 263 262 263 266 268 271 274 278 280 282 281 281 281 281 281 280 280 279 279 279 280 281 283 284 286 287 287 288 287 286 285 284 283 282 281 282 283 285 287 289 289 289 290 290 290 290 289 289 288
233 234 236 237 237 238 242 246 246 245 244 243 243 246 251 252 252 254 255 253 253 255 255 254 253 253 256 258 260 260 261 263 265 266 265 263 260 258 259 262 265 268 272 275 276 277 278 279 280 281 282 283 283 282 281 281 281 281 283 285 287 288 288 288 288 287 286 284 283 282 281 281 282 284 285 286 287 288 288 288 288 289 289 288 288
233 234 235 236 236 238 242 243 242 242 242 242 244 249 252 251 251 255 255 253 253 254 253 252 252 253 255 256 258 260 261 261 261 261 262 261 259 258 259 260 262 266 270 273 275 276 278 279 280 281 282 283 284 284 283 283 282 283 283 285 286 286 286 285 285 284 284 283 283 283 283 283 284 285 286 287 288 288 287 287 287 286 286 286 286
232 234 236 238 238 240 241 239 238 239 240 241 244 248 250 249 249 251 250 248 251 254 254 253 254 256 257 257 258 261 260 255 252 254 257 258 258 259 260 261 264 268 271 274 276 278 279 280 281 282 283 283 284 284 284 284 284 284 284 284 285 285 286 285 285 284 284 283 283 283 283 283 284 285 285 286 287 287 287 287 286 286 285 284 283
227 232 236 238 238 239 239 238 237 237 238 240 243 247 250 249 246 245 246 248 251 254 255 256 256 257 258 259 261 263 262 257 253 254 257 258 259 260 262 264 267 271 274 276 279 280 281 282 282 283 283 284 284 284 284 285 285 285 285 285 286 286 286 286 285 285 284 284 283 283 283 284 284 284 285 286 287 289 290 290 289 288 287 286 285
227 231 234 236 236 237 236 235 235 236 238 240 242 244 246 247 244 243 245 248 250 250 252 255 256 257 258 259 259 261 262 262 259 257 257 259 261 263 267 270 273 276 278 280 281 282 283 283 283 283 284 284 283 283 283 284 284 285 286 286 286 286 286 285 285 285 285 284 284 284 285 285 286 286 287 288 290 292 293 293 293 291 290 289 288
229 231 233 235 236 237 238 236 235 235 237 239 240 241 242 242 243 244 245 248 250 251 253 257 259 261 263 262 260 258 258 259 259 257 257 258 260 264 268 272 274 277 278 280 281 281 282 283 284 285 285 284 284 283 284 284 286 286 287 287 287 287 286 286 286 287 287 287 288 288 289 289 290 290 290 290 291 293 293 293 292 291 290 288 288
229 230 231 233 236 238 238 238 236 235 235 237 238 239 240 241 243 246 248 251 253 255 256 259 260 262 264 265 264 262 260 258 258 258 258 259 262 265 268 271 273 274 276 277 279 280 282 284 285 286 286 286 286 286 286 287 288 289 290 290 290 290 290 290 290 290 290 290 291 291 292 292 292 292 292 292 292 292 292 292 291 290 288 287 287
229 230 229 231 235 238 240 241 239 236 235 236 238 239 241 243 245 247 250 252 255 257 259 260 261 262 264 265 266 266 265 264 262 262 262 263 265 267 269 270 271 272 274 276 279 281 283 285 285 286 286 287 287 287 287 288 288 289 289 290 291 291 291 291 291 291 291 292 292 292 292 292 292 292 291 291 291 290 290 290 289 288 287 286 286
228 231 232 232 234 237 240 243 242 239 236 236 238 240 241 243 245 246 248 251 254 257 259 260 261 263 264 266 267 267 267 266 266 266 266 267 267 268 268 269 270 272 274 278 281 283 284 285 285 286 286 286 287 287 287 287 287 288 288 289 290 290 290 291 291 291 292 292 292 292 292 292 291 291 291 290 290 289 289 288 288 287 287 286 286
229 230 233 235 236 237 238 241 243 242 240 239 240 241 242 243 245 247 248 250 253 255 258 260 262 264 265 266 266 265 264 264 265 266 267 268 268 269 269 270 271 274 276 279 281 282 282 283 284 284 284 284 284 284 284 285 285 286 286 287 288 288 289 289 289 290 290 291 291 291 291 291 291 291 291 291 290 289 289 288 288 288 287 287 287
232 232 234 236 238 238 238 239 241 243 243 244 244 245 246 247 248 249 251 252 254 256 258 260 261 263 264 264 264 264 264 264 265 266 266 267 268 269 270 271 272 274 277 279 280 280 280 281 281 281 281 280 280 280 280 281 281 282 282 283 284 285 286 287 287 288 289 289 290 290 290 290 291 291 291 291 290 289 289 289 288 287 287 287 287
233 234 234 236 237 239 240 240 241 242 243 245 247 248 250 251 252 253 254 255 256 257 258 259 260 260 261 262 262 263 263 264 265 266 267 267 268 269 270 271 272 274 276 278 279 280 280 281 281 280 279 278 278 278 278 278 278 279 280 281 283 284 285 286 286 287 287 288 288 289 289 290 290 290 291 291 290 290 290 289 289 288 287 287 287
233 234 235 236 237 239 241 242 243 243 243 244 245 247 249 251 253 254 256 257 258 258 259 259 259 259 259 260 261 262 263 264 265 265 266 267 267 268 269 270 271 273 275 277 278 279 280 280 280 279 278 277 277 276 276 276 277 278 279 281 283 284 284 285 285 285 286 286 287 288 288 289 289 290 290 290 290 290 290 290 289 289 288 288 287
235 235 235 236 237 239 241 242 244 245 245 246 247 248 249 251 253 254 256 257 257 258 259 259 259 259 259 260 261 262 263 264 265 266 266 266 267 268 269 270 272 274 275 277 278 279 280 280 280 279 277 276 275 275 275 275 276 278 280 283 284 284 284 284 284 285 285 285 286 286 287 287 288 288 288 288 288 288 288 287 287 286 286 285 285
240 239 238 238 238 239 241 243 244 246 247 248 249 250 251 252 254 255 256 257 258 258 258 258 258 258 259 260 261 262 264 265 266 267 267 268 269 270 271 273 274 276 277 278 279 280 280 280 280 278 277 275 274 274 275 276 277 280 282 284 284 284 284 284 284 285 285 285 285 286 286 286 286 287 286 286 286 286 285 285 285 285 284 284 283
244 243 243 242 242 242 242 243 245 246 247 249 250 252 253 253 254 254 255 256 257 258 258 258 258 259 260 260 262 263 264 266 267 268 270 271 272 273 274 275 276 277 278 279 279 279 279 279 278 277 276 275 274 274 275 277 279 281 283 284 284 284 284 284 284 285 285 285 285 285 285 285 285 285 285 285 285 285 285 284 284 284 284 284 283
245 246 247 247 247 246 246 246 247 247 248 248 250 251 253 255 255 255 255 256 256 257 258 259 260 260 261 262 263 264 265 267 268 269 270 272 273 274 275 276 277 277 278 278 278 277 277 277 276 276 275 275 275 275 277 279 281 283 283 284 284 284 284 284 284 284 284 284 284 284 284 284 284 284 284 284 284 284 284 284 284 284 284 284 283
246 247 248 249 249 250 250 250 250 250 251 251 250 251 252 253 255 256 256 257 257 258 259 260 261 262 263 264 265 266 267 268 268 269 270 271 272 273 274 274 275 275 276 276 275 275 275 275 275 275 275 275 276 277 279 280 282 282 283 283 283 283 283 283 283 283 283 283 284 284 283 283 283 283 283 283 283 283 283 284 283 283 283 283 283
246 247 248 249 250 251 251 252 252 252 253 254 254 254 254 254 255 256 258 258 259 260 261 262 263 264 265 266 267 268 269 269 270 270 271 271 272 272 273 273 273 274 274 274 274 274 275 275 275 276 276 276 277 278 279 280 281 281 281 281 281 281 281 281 282 282 282 282 282 282 282 282 282 282 282 282 283 283 283 283 283 283 283 283 283
245 247 248 249 251 251 252 253 254 255 255 255 255 256 256 257 257 258 259 260 261 262 262 263 264 265 266 267 268 268 269 269 270 270 270 271 271 272 272 272 273 273 273 274 274 275 275 276 276 277 277 277 278 278 279 279 279 279 280 280 280 280 280 280 281 281 281 281 281 281 281 281 282 282 282 282 283 283 283 284 284 284 285 285 285
245 247 248 250 251 252 253 254 256 257 257 257 257 256 256 256 256 257 258 259 260 261 262 263 263 264 265 266 266 267 268 268 268 269 269 269 270 271 271 272 272 272 273 274 274 275 275 276 276 277 277 277 277 278 278 278 278 278 278 278 279 279 279 280 280 280 280 281 281 281 282 282 283 283 284 284 285 285 285 286 286 287 287 287 287
247 247 248 250 251 253 254 255 257 258 259 260 260 259 259 257 257 256 256 256 257 258 259 260 261 261 262 263 264 264 265 266 266 267 267 268 269 270 270 271 272 272 273 273 273 274 274 274 275 275 276 276 276 277 277 277 278 278 278 279 279 279 280 280 281 281 282 282 283 283 284 284 285 285 286 287 287 287 288 288 289 289 289 289 289
249 250 250 251 252 253 255 256 257 258 259 260 261 262 262 262 261 260 259 258 257 258 258 259 260 261 261 262 263 264 264 265 266 266 267 268 268 269 270 270 271 271 272 272 273 273 274 274 275 275 275 276 276 277 277 278 278 279 280 280 281 282 282 283 283 284 284 285 285 286 286 287 287 288 288 289 290 290 291 291 291 291 291 290 290
250 251 252 253 254 255 255 256 257 258 259 260 261 262 263 264 264 264 264 263 262 261 260 260 261 261 262 263 264 265 265 266 267 267 268 269 269 270 271 271 272 272 273 274 274 275 275 276 276 277 277 278 278 279 279 280 280 281 282 282 283 284 284 285 285 286 286 287 287 288 289 289 290 290 291 291 292 292 292 292 292 292 291 291 290
251 252 253 254 255 256 257 257 258 259 260 261 262 263 264 264 265 266 266 266 266 265 265 264 264 264 264 265 265 266 267 267 268 269 269 270 271 271 272 273 273 274 274 275 276 276 277 277 278 279 279 280 280 281 281 282 282 283 284 284 285 286 287 287 288 289 289 290 290 291 291 292 292 292 292 293 293 293 293 293 292 292 292 291 291
250 251 253 254 255 256 257 258 259 260 261 261 262 263 264 265 266 266 267 267 268 268 268 268 268 268 268 268 268 269 269 270 270 271 271 272 272 273 274 274 275 276 276 277 277 278 278 279 279 280 280 281 282 282 283 284 284 285 286 287 288 288 289 290 291 291 291 292 292 292 292 293 293 293 293 293 294 294 293 293 293 293 292 292 291
249 250 252 253 255 256 257 258 259 261 261 262 263 264 265 265 266 267 267 268 269 270 270 271 271 272 272 273 273 273 273 274 274 274 274 275 275 275 276 277 278 279 279 280 280 281 281 282 282 283 284 285 285 286 287 287 288 289 289 290 290 291 291 292 292 292 292 292 293 293 293 293 294 294 294 294 294 294 294 294 294 294 294 294 293
249 250 251 252 253 255 257 258 259 260 262 262 263 264 265 266 267 268 269 270 271 271 272 273 274 274 275 276 277 277 278 278 279 279 279 279 280 280 280 281 282 282 283 284 284 285 285 286 286 287 287 288 288 289 289 290 290 291 291 291 292 292 292 292 293 293 293 293 294 294 294 295 295 295 295 295 295 295 296 296 296 296 296 296 295
248 250 250 251 252 254 255 257 258 260 261 262 263 264 265 267 268 269 270 271 272 274 274 275 276 277 278 279 280 281 282 282 283 284 284 285 285 286 286 286 286 287 287 287 287 288 288 288 289 289 289 289 290 290 290 291 291 291 292 292 292 292 293 293 294 294 295 295 295 296 296 296 296 296 297 297 297 298 298 298 298 298 298 298 297
Height
10980 10980 10980 10981 10982 10983 10984 10985 10985 10986 10987 10988 10989 10990 10991 10993 10994 10995 10996 10997 10999 11000 11001 11003 11004 11005 11006 11007 11008 11009 11010 11010 11011 11011 11012 11012 11013 11013 11013 11013 11013 11013 11013 11013 11013 11013 11013 11012 11012 11013 11013 11013 11012 11012 11012 11011 11011 11010 11009 11008 11007 11006 11006 11005 11005 11004 11004 11002 11002 11001 11001 11000 10999 10998 10997 10996 10996 10995 10993 10992 10991 10989 10988 10987 10987
10980 10980 10981 10981 10982 10982 10983 10984 10985 10986 10987 10989 10990 10991 10992 10993 10994 10996 10997 10998 10999 11000 11002 11003 11005 11006 11007 11008 11009 11010 11011 11012 11012 11012 11012 11013 11013 11013 11013 11013 11013 11013 11013 11013 11013 11013 11013 11012 11012 11012 11013 11013 11012 11012 11012 11011 11011 11010 11009 11008 11007 11007 11006 11006 11005 11005 11004 11003 11003 11002 11001 11000 10999 10998 10997 10996 10996 10995 10994 10993 10992 10991 10990 10989 10988
10981 10981 10981 10981 10982 10982 10983 10984 10985 10987 10988 10989 10990 10991 10992 10994 10995 10996 10997 10999 11000 11001 11003 11004 11006 11007 11008 11009 11010 11011 11012 11012 11012 11012 11012 11012 11012 11013 11013 11013 11013 11013 11013 11013 11013 11013 11012 11012 11012 11012 11012 11012 11012 11012 11011 11011 11010 11009 11009 11008 11007 11007 11006 11006 11006 11005 11005 11004 11003 11002 11001 11001 11000 10998 10997 10996 10995 10994 10994 10993 10993 10992 10991 10990 10989
10981 10981 10981 10982 10982 10983 10983 10984 10985 10987 10988 10989 10990 10992 10993 10994 10995 10996 10998 10999 11000 11002 11003 11005 11006 11008 11010 11011 11012 11012 11012 11012 11011 11010 11010 11011 11011 11012 11012 11012 11012 11013 11012 11012 11012 11012 11012 11012 11011 11011 11011 11011 11011 11011 11010 11010 11009 11008 11008 11007 11007 11006 11006 11006 11005 11005 11004 11003 11002 11001 11001 11000 10999 10998 10997 10996 10995 10994 10994 10993 10993 10992 10991 10990 10989
10981 10981 10981 10982 10983 10983 10984 10985 10986 10987 10988 10989 10990 10992 10993 10994 10995 10997 10998 10999 11000 11002 11003 11005 11008 11010 11010 11010 11009 11008 11008 11007 11007 11007 11008 11009 11010 11010 11011 11011 11012 11012 11012 11012 11012 11012 11011 11011 11011 11010 11010 11010 11010 11010 11009 11008 11008 11007 11007 11006 11006 11006 11005 11005 11005 11004 11003 11002 11001 11000 11000 10999 10998 10997 10996 10996 10995 10994 10993 10993 10992 10992 10991 10990 10989
10980 10980 10981 10981 10982 10983 10984 10985 10986 10987 10988 10990 10991 10992 10993 10994 10995 10997 10998 10999 11000 11001 11002 11003 11004 11004 11004 11004 11005 11005 11004 11003 11004 11004 11005 11007 11008 11009 11010 11010 11010 11010 11010 11010 11010 11010 11010 11010 11010 11010 11009 11009 11008 11008 11008 11007 11007 11007 11006 11006 11006 11005 11005 11004 11004 11003 11003 11002 11001 11000 10999 10998 10998 10996 10995 10994 10994 10993 10993 10992 10992 10991 10990 10990 10989
10978 10979 10979 10980 10981 10982 10984 10985 10986 10987 10988 10989 10990 10992 10993 10994 10995 10996 10997 10998 10999 11000 11001 11000 10999 10999 11000 11002 11004 11004 11005 11005 11005 11005 11006 11007 11007 11008 11008 11009 11009 11008 11008 11008 11008 11009 11009 11008 11008 11008 11008 11007 11007 11007 11006 11006 11006 11006 11006 11005 11005 11005 11004 11003 11003 11002 11002 11001 11000 10999 10998 10998 10997 10996 10995 10994 10993 10993 10992 10991 10990 10989 10989 10989 10988
10975 10977 10978 10979 10980 10981 10982 10984 10985 10986 10987 10989 10990 10991 10993 10994 10995 10996 10997 10998 10999 10999 10999 10999 10999 10999 11000 11001 11001 11002 11003 11004 11005 11005 11006 11006 11006 11007 11007 11007 11007 11006 11006 11006 11007 11007 11007 11007 11007 11007 11006 11006 11005 11005 11005 11004 11004 11004 11004 11004 11004 11003 11003 11002 11001 11001 11000 11000 10999 10998 10997 10996 10996 10995 10994 10994 10993 10992 10991 10990 10989 10988 10988 10987 10986
10972 10974 10975 10977 10978 10980 10981 10982 10984 10985 10986 10988 10989 10991 10992 10993 10995 10996 10996 10997 10998 10998 10999 10999 11000 10999 10999 10999 11000 11001 11002 11003 11004 11004 11004 11005 11005 11005 11005 11005 11004 11004 11004 11005 11005 11005 11005 11005 11005 11005 11005 11004 11004 11003 11003 11003 11002 11002 11002 11002 11002 11001 11001 11000 11000 10999 10999 10998 10997 10997 10996 10994 10994 10993 10993 10993 10992 10991 10990 10989 10988 10987 10986 10985 10984
10971 10972 10973 10975 10977 10978 10979 10980 10982 10984 10985 10987 10989 10990 10991 10993 10994 10995 10995 10996 10997 10997 10998 10999 10999 10999 10999 10999 10999 11001 11002 11002 11003 11003 11003 11003 11003 11003 11003 11002 11002 11002 11002 11003 11003 11003 11002 11003 11003 11003 11003 11003 11002 11002 11001 11001 11000 11000 11000 10999 10999 10999 10998 10998 10997 10997 10997 10996 10996 10995 10994 10993 10992 10991 10991 10991 10991 10990 10989 10988 10987 10986 10985 10984 10983
10970 10971 10972 10974 10975 10976 10977 10978 10980 10982 10984 10986 10987 10989 10990 10991 10992 10993 10994 10994 10996 10996 10996 10997 10997 10998 10998 10998 10998 10999 11000 11001 11001 11001 11001 11001 11001 11001 11000 11000 11000 11000 11001 11001 11001 11000 11000 11000 11001 11001 11001 11001 11000 11000 10999 10999 10998 10998 10997 10996 10996 10995 10995 10995 10995 10994 10994 10993 10993 10992 10991 10991 10990 10990 10989 10989 10988 10988 10987 10987 10986 10985 10984 10983 10983
10968 10969 10970 10972 10973 10974 10975 10977 10979 10981 10984 10985 10986 10987 10988 10989 10990 10991 10992 10992 10993 10994 10994 10995 10995 10996 10996 10996 10997 10997 10998 10999 10999 10999 10999 11000 10999 10999 10998 10998 10998 10998 10999 10999 10999 10998 10998 10998 10999 10999 10999 10998 10998 10997 10996 10996 10996 10995 10994 10994 10993 10992 10991 10991 10991 10991 10990 10990 10989 10989 10989 10988 10988 10987 10987 10986 10986 10985 10985 10984 10984 10983 10982 10982 10981
10965 10967 10968 10970 10970 10971 10973 10975 10978 10979 10981 10983 10984 10985 10986 10987 10988 10989 10990 10990 10990 10991 10992 10992 10993 10993 10993 10994 10995 10996 10996 10996 10997 10997 10997 10997 10997 10997 10996 10996 10996 10996 10996 10996 10996 10996 10996 10995 10996 10996 10996 10995 10994 10994 10993 10993 10993 10992 10991 10991 10990 10989 10989 10988 10987 10987 10986 10986 10985 10985 10985 10984 10984 10984 10984 10983 10982 10982 10981 10981 10980 10980 10980 10979 10979
10962 10964 10965 10966 10967 10968 10971 10973 10974 10976 10978 10980 10981 10983 10984 10985 10987 10987 10987 10987 10987 10988 10989 10990 10990 10990 10991 10992 10993 10993 10993 10994 10994 10994 10994 10994 10994 10994 10993 10993 10993 10993 10993 10993 10993 10993 10993 10993 10993 10993 10992 10991 10991 10991 10990 10990 10989 10989 10988 10988 10987 10987 10986 10985 10984 10983 10982 10982 10981 10981 10981 10981 10980 10980 10980 10979 10979 10978 10978 10977 10977 10976 10976 10975 10975
10958 10959 10961 10963 10965 10967 10969 10970 10971 10974 10976 10977 10979 10980 10981 10982 10983 10984 10984 10984 10984 10984 10985 10985 10986 10987 10988 10989 10990 10990 10990 10990 10991 10991 10990 10990 10990 10990 10990 10989 10989 10989 10989 10989 10990 10990 10990 10990 10990 10989 10988 10988 10987 10987 10987 10987 10986 10986 10986 10985 10984 10983 10983 10982 10981 10979 10978 10977 10977 10976 10976 10976 10975 10975 10975 10975 10975 10974 10973 10973 10973 10972 10971 10971 10971
10955 10955 10958 10961 10963 10965 10966 10967 10969 10971 10973 10974 10976 10977 10978 10978 10979 10979 10980 10980 10980 10980 10980 10980 10981 10982 10983 10984 10985 10986 10986 10986 10987 10987 10987 10986 10986 10986 10986 10985 10985 10985 10985 10985 10985 10985 10985 10985 10985 10985 10984 10984 10984 10983 10983 10983 10983 10983 10982 10982 10981 10980 10979 10978 10977 10976 10975 10973 10972 10971 10970 10970 10970 10970 10970 10969 10969 10969 10968 10968 10968 10967 10966 10966 10965
10952 10952 10954 10957 10960 10962 10963 10964 10965 10967 10969 10970 10972 10973 10974 10975 10974 10974 10975 10975 10975 10975 10975 10976 10977 10978 10979 10979 10980 10981 10981 10982 10982 10982 10982 10982 10982 10982 10981 10981 10981 10981 10981 10981 10980 10980 10980 10980 10980 10980 10979 10979 10979 10979 10978 10978 10978 10978 10978 10977 10977 10975 10974 10973 10972 10972 10971 10970 10968 10967 10966 10965 10965 10964 10964 10963 10963 10963 10962 10962 10962 10961 10960 10959 10959
10947 10949 10950 10953 10955 10958 10960 10961 10962 10963 10965 10966 10968 10970 10971 10970 10969 10969 10971 10971 10969 10967 10968 10971 10973 10974 10974 10975 10975 10976 10977 10978 10978 10978 10978 10977 10977 10977 10977 10977 10977 10978 10978 10976 10975 10975 10975 10974 10974 10974 10974 10974 10973 10973 10973 10972 10972 10972 10972 10972 10971 10971 10970 10969 10968 10967 10966 10965 10964 10963 10962 10961 10960 10959 10959 10958 10958 10957 10957 10956 10956 10955 10955 10954 10952
10941 10943 10944 10946 10950 10954 10955 10956 10957 10959 10961 10963 10964 10966 10967 10966 10965 10964 10965 10965 10961 10959 10962 10967 10969 10970 10970 10970 10971 10972 10973 10973 10974 10974 10973 10973 10972 10972 10972 10972 10973 10974 10974 10971 10970 10970 10969 10969 10969 10969 10968 10968 10968 10967 10967 10967 10967 10967 10966 10966 10966 10965 10965 10964 10963 10962 10961 10960 10959 10958 10957 10956 10955 10954 10953 10953 10952 10952 10951 10950 10950 10949 10948 10948 10946
10935 10936 10937 10939 10944 10947 10948 10950 10952 10954 10956 10958 10960 10962 10963 10962 10959 10956 10957 10958 10956 10956 10959 10962 10964 10965 10966 10966 10967 10968 10968 10968 10969 10969 10969 10968 10968 10967 10967 10967 10968 10969 10968 10965 10964 10965 10964 10963 10963 10963 10963 10962 10962 10961 10961 10961 10960 10960 10960 10960 10960 10960 10960 10959 10959 10958 10956 10955 10953 10952 10951 10950 10949 10948 10947 10946 10945 10945 10944 10943 10942 10942 10941 10940 10939
10931 10930 10930 10932 10937 10940 10942 10944 10946 10948 10950 10953 10956 10956 10955 10955 10951 10948 10950 10953 10953 10953 10955 10956 10958 10960 10960 10962 10963 10963 10963 10963 10963 10963 10963 10963 10963 10963 10962 10962 10962 10962 10961 10960 10959 10959 10958 10957 10958 10958 10957 10957 10956 10956 10955 10954 10953 10953 10953 10953 10954 10955 10954 10953 10952 10952 10951 10949 10948 10946 10945 10944 10943 10941 10940 10939 10938 10937 10936 10935 10934 10933 10932 10932 10930
10924 10923 10924 10927 10930 10933 10935 10937 10939 10941 10944 10947 10948 10948 10947 10946 10944 10942 10946 10949 10950 10950 10950 10951 10952 10954 10955 10957 10958 10958 10958 10958 10958 10958 10959 10958 10958 10958 10957 10956 10956 10956 10955 10955 10954 10953 10952 10952 10952 10952 10951 10951 10950 10949 10948 10947 10946 10945 10946 10947 10948 10948 10947 10945 10944 10944 10943 10942 10941 10939 10938 10937 10935 10934 10933 10932 10932 10930 10928 10927 10926 10925 10924 10923 10921
10915 10916 10919 10921 10923 10925 10928 10930 10933 10935 10937 10939 10940 10940 10939 10938 10936 10937 10942 10945 10945 10945 10946 10945 10946 10948 10950 10953 10952 10952 10953 10953 10953 10954 10953 10952 10952 10951 10950 10950 10950 10949 10949 10949 10948 10947 10946 10946 10946 10945 10944 10944 10943 10942 10941 10939 10937 10937 10939 10941 10942 10941 10940 10938 10936 10935 10934 10933 10932 10931 10930 10928 10927 10926 10925 10924 10924 10923 10921 10919 10918 10917 10916 10914 10913
10907 10910 10912 10912 10914 10917 10921 10923 10926 10929 10929 10931 10932 10930 10929 10930 10931 10933 10937 10939 10938 10938 10939 10940 10940 10942 10944 10946 10946 10945 10946 10947 10947 10947 10946 10945 10944 10944 10943 10943 10942 10942 10943 10942 10942 10941 10939 10939 10938 10938 10938 10937 10936 10935 10933 10930 10929 10930 10932 10933 10934 10933 10932 10930 10927 10926 10925 10924 10924 10923 10921 10919 10918 10916 10915 10914 10914 10913 10912 10911 10909 10908 10907 10905 10904
10899 10901 10903 10904 10907 10911 10914 10916 10919 10921 10920 10921 10922 10921 10921 10924 10928 10930 10931 10932 10932 10933 10934 10934 10935 10935 10936 10938 10939 10939 10940 10941 10940 10940 10938 10937 10936 10935 10935 10935 10934 10935 10935 10935 10934 10933 10932 10931 10931 10930 10930 10929 10928 10926 10924 10921 10920 10921 10922 10923 10924 10923 10921 10919 10918 10916 10915 10915 10914 10913 10912 10910 10908 10907 10906 10904 10904 10903 10902 10901 10900 10898 10897 10895 10893
10890 10892 10894 10896 10899 10903 10906 10908 10909 10909 10909 10911 10913 10914 10916 10919 10922 10924 10925 10926 10927 10927 10927 10928 10928 10929 10929 10930 10931 10932 10932 10933 10933 10932 10931 10930 10928 10928 10928 10928 10927 10927 10927 10926 10925 10924 10923 10923 10923 10922 10921 10919 10918 10916 10914 10911 10910 10909 10910 10912 10913 10912 10911 10909 10908 10906 10905 10904 10903 10902 10901 10899 10898 10896 10895 10893 10892 10891 10890 10889 10887 10886 10884 10883 10881
10882 10884 10886 10887 10890 10894 10896 10898 10898 10898 10901 10904 10907 10909 10910 10912 10914 10916 10917 10918 10919 10920 10921 10922 10922 10923 10924 10925 10925 10925 10925 10925 10925 10924 10923 10922 10922 10921 10921 10921 10920 10919 10918 10917 10916 10914 10913 10913 10913 10913 10912 10910 10908 10906 10904 10902 10900 10899 10901 10902 10903 10902 10900 10898 10897 10895 10894 10893 10891 10890 10888 10886 10885 10884 10883 10882 10880 10878 10876 10874 10872 10871 10870 10868 10866
10875 10877 10878 10880 10882 10885 10887 10888 10889 10891 10894 10898 10900 10902 10904 10905 10906 10907 10908 10909 10910 10912 10913 10914 10915 10917 10918 10918 10919 10919 10918 10918 10918 10918 10916 10916 10915 10914 10914 10913 10913 10911 10910 10908 10906 10904 10903 10903 10902 10902 10901 10900 10898 10896 10894 10892 10890 10890 10890 10891 10891 10890 10889 10887 10886 10884 10882 10880 10878 10876 10875 10873 10872 10870 10870 10869 10867 10865 10862 10860 10858 10856 10855 10853 10852
10868 10870 10872 10873 10875 10877 10879 10880 10881 10884 10887 10889 10892 10894 10896 10897 10898 10899 10900 10901 10902 10903 10905 10906 10907 10908 10909 10910 10911 10912 10912 10911 10911 10911 10910 10909 10908 10908 10907 10906 10905 10903 10901 10899 10896 10895 10894 10893 10892 10891 10889 10888 10886 10885 10883 10881 10879 10877 10876 10876 10876 10875 10874 10873 10872 10872 10870 10868 10866 10864 10862 10861 10859 10857 10855 10854 10852 10850 10848 10846 10844 10842 10840 10838 10837
10861 10863 10865 10867 10869 10871 10872 10873 10875 10877 10880 10882 10884 10886 10887 10889 10890 10891 10893 10894 10894 10895 10896 10897 10898 10899 10900 10901 10902 10903 10903 10903 10903 10902 10902 10901 10900 10899 10899 10897 10896 10894 10891 10889 10888 10886 10885 10883 10881 10879 10878 10876 10875 10873 10872 10870 10868 10866 10864 10863 10862 10861 10860 10858 10858 10857 10856 10854 10852 10850 10849 10847 10845 10843 10842 10840 10838 10836 10834 10832 10829 10827 10825 10822 10821
10853 10856 10859 10861 10863 10865 10866 10866 10868 10870 10872 10874 10875 10877 10878 10880 10882 10883 10885 10886 10887 10887 10887 10888 10889 10890 10891 10892 10893 10893 10893 10893 10892 10892 10891 10891 10890 10889 10889 10887 10886 10884 10882 10880 10878 10876 10874 10872 10869 10867 10866 10865 10863 10861 10859 10857 10855 10854 10852 10850 10849 10847 10845 10844 10842 10841 10840 10838 10837 10835 10833 10831 10829 10827 10826 10825 10823 10821 10819 10817 10814 10811 10809 10806 10804
10847 10851 10853 10854 10856 10858 10859 10859 10861 10862 10864 10866 10868 10869 10871 10873 10874 10876 10877 10878 10878 10879 10879 10879 10879 10881 10882 10883 10883 10883 10883 10883 10882 10882 10881 10880 10879 10878 10878 10877 10875 10873 10872 10870 10869 10867 10864 10862 10859 10857 10855 10853 10851 10849 10847 10845 10844 10842 10840 10838 10836 10834 10832 10829 10827 10825 10824 10822 10821 10819 10816 10814 10812 10810 10808 10807 10805 10804 10802 10799 10797 10794 10792 10789 10787
10840 10844 10846 10848 10849 10850 10852 10853 10854 10855 10857 10859 10861 10863 10865 10867 10868 10869 10870 10871 10871 10870 10870 10870 10871 10871 10872 10872 10872 10873 10873 10873 10872 10872 10871 10870 10868 10867 10867 10866 10865 10863 10860 10859 10857 10856 10854 10852 10850 10848 10845 10843 10841 10839 10837 10835 10833 10832 10829 10827 10825 10823 10820 10816 10813 10811 10809 10806 10804 10802 10800 10798 10796 10794 10792 10790 10788 10786 10784 10782 10779 10777 10774 10771 10768
10831 10835 10838 10840 10842 10843 10845 10847 10848 10849 10850 10852 10853 10855 10857 10859 10861 10862 10862 10862 10862 10861 10861 10861 10861 10861 10861 10861 10861 10862 10862 10863 10862 10861 10860 10859 10858 10858 10857 10856 10854 10852 10849 10848 10846 10844 10842 10840 10838 10836 10833 10831 10829 10828 10826 10824 10822 10820 10818 10815 10813 10811 10808 10803 10800 10798 10795 10791 10788 10786 10784 10781 10779 10777 10775 10772 10770 10768 10766 10763 10760 10758 10755 10753 10750
10822 10826 10829 10832 10834 10836 10838 10840 10841 10842 10843 10844 10846 10848 10849 10850 10851 10852 10853 10853 10853 10852 10852 10852 10851 10850 10850 10850 10850 10851 10852 10852 10851 10850 10849 10848 10847 10846 10845 10844 10842 10840 10839 10837 10835 10832 10830 10827 10825 10822 10820 10818 10816 10814 10813 10811 10809 10807 10805 10803 10800 10798 10794 10790 10786 10783 10780 10776 10773 10770 10768 10765 10762 10760 10757 10754 10752 10749 10746 10743 10740 10738 10735 10733 10730
10815 10819 10821 10823 10825 10827 10829 10831 10833 10834 10836 10837 10838 10840 10841 10842 10843 10844 10845 10844 10843 10843 10842 10841 10841 10840 10840 10840 10841 10841 10841 10841 10839 10837 10837 10836 10835 10834 10833 10831 10830 10829 10828 10825 10823 10820 10817 10814 10812 10809 10807 10805 10802 10800 10798 10796 10794 10792 10791 10788 10786 10782 10778 10774 10771 10768 10765 10761 10758 10754 10751 10749 10746 10744 10742 10739 10736 10732 10729 10726 10724 10721 10717 10715 10712
10805 10808 10811 10813 10815 10818 10820 10822 10824 10826 10827 10829 10829 10831 10832 10833 10834 10836 10836 10835 10834 10833 10831 10829 10829 10829 10831 10832 10833 10832 10831 10829 10827 10825 10824 10824 10823 10822 10821 10819 10817 10816 10814 10812 10809 10807 10804 10802 10799 10796 10793 10790 10787 10785 10783 10781 10778 10776 10774 10771 10768 10765 10762 10758 10755 10751 10748 10745 10741 10738 10735 10732 10730 10728 10725 10722 10719 10715 10711 10708 10706 10703 10700 10697 10694
10794 10797 10799 10802 10805 10808 10810 10813 10815 10817 10818 10819 10820 10821 10822 10823 10825 10826 10826 10826 10824 10821 10818 10816 10817 10819 10822 10823 10823 10822 10820 10818 10815 10814 10812 10811 10811 10810 10808 10806 10804 10802 10801 10799 10797 10794 10792 10789 10785 10781 10778 10775 10772 10770 10768 10765 10762 10760 10757 10754 10751 10748 10745 10741 10738 10734 10730 10727 10724 10720 10717 10714 10711 10708 10706 10703 10700 10695 10691 10688 10686 10683 10679 10676 10673
10784 10787 10789 10791 10794 10797 10800 10803 10805 10807 10808 10810 10811 10811 10812 10813 10814 10816 10816 10815 10813 10809 10806 10804 10806 10808 10811 10812 10812 10811 10809 10807 10804 10802 10801 10799 10798 10796 10795 10793 10791 10789 10787 10786 10784 10782 10779 10776 10772 10767 10764 10760 10757 10755 10752 10748 10745 10742 10739 10736 10733 10731 10727 10724 10720 10716 10713 10709 10706 10702 10698 10694 10691 10688 10685 10682 10679 10674 10670 10667 10664 10661 10657 10653 10650
10775 10778 10780 10781 10783 10786 10789 10792 10794 10796 10798 10800 10801 10802 10803 10804 10805 10806 10805 10803 10800 10797 10795 10795 10796 10798 10799 10800 10800 10799 10797 10795 10793 10791 10789 10787 10785 10784 10783 10781 10779 10776 10774 10772 10769 10767 10764 10761 10758 10755 10752 10748 10744 10740 10736 10732 10728 10724 10721 10718 10715 10712 10708 10705 10701 10698 10695 10691 10688 10684 10679 10675 10671 10668 10664 10660 10656 10652 10648 10645 10642 10638 10634 10630 10626
10766 10768 10770 10771 10773 10777 10780 10782 10784 10787 10788 10789 10790 10792 10793 10795 10796 10795 10794 10791 10788 10786 10785 10785 10786 10786 10786 10786 10786 10786 10785 10783 10781 10778 10776 10775 10773 10772 10771 10769 10767 10764 10761 10758 10755 10752 10749 10746 10744 10741 10738 10734 10730 10726 10722 10717 10713 10708 10704 10700 10696 10692 10688 10685 10682 10679 10676 10673 10669 10664 10660 10655 10652 10648 10644 10640 10635 10631 10626 10623 10619 10616 10611 10607 10602
10756 10758 10760 10761 10764 10767 10770 10772 10775 10777 10778 10779 10781 10782 10784 10785 10785 10785 10783 10780 10777 10776 10776 10775 10775 10774 10774 10774 10773 10772 10772 10770 10768 10766 10764 10762 10761 10759 10757 10755 10753 10751 10747 10744 10740 10737 10734 10732 10729 10726 10722 10718 10714 10710 10706 10702 10697 10693 10688 10683 10678 10674 10670 10667 10663 10660 10657 10653 10649 10645 10640 10636 10631 10627 10623 10619 10615 10610 10605 10600 10596 10592 10587 10582 10577
10744 10747 10750 10753 10755 10757 10760 10763 10765 10766 10767 10768 10770 10772 10774 10775 10775 10775 10773 10770 10768 10767 10766 10765 10764 10763 10762 10761 10760 10759 10758 10757 10756 10754 10752 10750 10748 10746 10743 10741 10738 10736 10733 10730 10726 10723 10720 10717 10713 10709 10704 10700 10696 10692 10688 10684 10679 10674 10669 10665 10660 10656 10652 10648 10645 10641 10637 10633 10629 10624 10620 10615 10610 10605 10600 10596 10592 10587 10581 10576 10571 10565 10560 10554 10548
10734 10738 10741 10744 10746 10748 10750 10752 10754 10755 10755 10756 10758 10760 10762 10763 10764 10763 10762 10760 10758 10757 10756 10755 10754 10752 10751 10749 10748 10746 10745 10744 10743 10741 10739 10737 10735 10732 10730 10727 10724 10720 10717 10714 10711 10708 10705 10701 10697 10692 10687 10683 10679 10674 10670 10665 10660 10655 10650 10645 10640 10636 10632 10628 10625 10621 10617 10613 10608 10603 10598 10593 10588 10582 10576 10571 10566 10560 10554 10548 10542 10535 10529 10522 10516
10725 10728 10732 10734 10736 10738 10740 10741 10742 10743 10744 10744 10745 10747 10749 10750 10750 10750 10749 10748 10748 10747 10746 10744 10743 10741 10739 10736 10735 10733 10732 10731 10729 10728 10726 10723 10721 10719 10716 10713 10710 10706 10702 10699 10696 10692 10689 10684 10680 10675 10670 10666 10661 10657 10652 10647 10641 10635 10630 10625 10620 10616 10612 10607 10603 10600 10595 10591 10586 10580 10574 10569 10563 10557 10550 10544 10538 10532 10526 10519 10512 10505 10499 10493 10487
10716 10719 10721 10724 10726 10727 10728 10730 10731 10732 10733 10733 10734 10736 10737 10737 10737 10736 10736 10735 10735 10734 10734 10733 10731 10729 10726 10724 10721 10719 10718 10717 10715 10714 10711 10708 10706 10703 10701 10698 10694 10691 10687 10684 10680 10676 10672 10667 10662 10657 10653 10648 10643 10639 10634 10629 10623 10617 10611 10606 10601 10596 10591 10586 10582 10577 10573 10568 10562 10556 10549 10543 10536 10530 10523 10516 10510 10504 10498 10491 10484 10478 10473 10468 10463
10707 10709 10711 10713 10715 10716 10718 10719 10720 10721 10721 10722 10723 10724 10725 10726 10725 10724 10723 10722 10721 10720 10720 10719 10718 10716 10714 10711 10709 10706 10705 10704 10702 10700 10698 10695 10692 10689 10685 10682 10679 10675 10671 10668 10664 10660 10656 10651 10645 10640 10635 10630 10625 10620 10615 10610 10605 10599 10594 10588 10582 10577 10571 10566 10561 10556 10550 10544 10538 10531 10524 10517 10510 10504 10497 10491 10485 10479 10472 10466 10461 10456 10451 10446 10441
10698 10700 10702 10703 10704 10705 10707 10709 10709 10709 10710 10712 10713 10713 10713 10713 10713 10712 10711 10709 10708 10707 10706 10705 10703 10701 10700 10698 10696 10694 10692 10691 10689 10688 10685 10682 10678 10675 10671 10667 10663 10659 10655 10651 10647 10643 10638 10633 10628 10623 10618 10613 10608 10602 10597 10592 10587 10582 10576 10570 10564 10558 10552 10547 10541 10535 10529 10522 10515 10508 10501 10494 10487 10481 10475 10469 10463 10457 10451 10446 10441 10436 10432 10428 10423
10690 10692 10693 10694 10695 10695 10697 10698 10699 10698 10699 10700 10702 10702 10701 10700 10700 10699 10698 10697 10695 10693 10693 10691 10689 10687 10685 10684 10682 10681 10679 10677 10675 10673 10670 10667 10664 10661 10658 10654 10649 10644 10639 10634 10629 10623 10618 10614 10610 10605 10600 10595 10590 10584 10578 10573 10567 10561 10556 10550 10544 10538 10532 10526 10521 10514 10508 10501 10494 10488 10480 10474 10468 10462 10456 10450 10444 10438 10433 10428 10424 10419 10415 10411 10407
10682 10683 10685 10686 10686 10686 10687 10688 10688 10688 10688 10689 10690 10690 10690 10689 10688 10687 10686 10684 10682 10681 10680 10678 10676 10673 10672 10670 10668 10666 10663 10660 10657 10654 10652 10649 10646 10643 10640 10636 10632 10627 10622 10616 10610 10605 10600 10595 10591 10587 10582 10577 10573 10567 10561 10555 10549 10543 10537 10531 10525 10519 10513 10507 10501 10495 10489 10482 10476 10469 10462 10456 10450 10445 10439 10434 10428 10422 10418 10413 10409 10404 10400 10396 10392
10674 10675 10676 10677 10678 10679 10679 10679 10678 10677 10678 10679 10680 10680 10679 10678 10678 10677 10675 10673 10671 10669 10667 10665 10663 10660 10659 10657 10655 10651 10647 10643 10640 10636 10633 10630 10627 10624 10620 10616 10613 10608 10604 10599 10594 10588 10583 10578 10574 10569 10564 10560 10555 10551 10545 10539 10533 10527 10521 10514 10508 10502 10496 10490 10484 10478 10472 10465 10459 10452 10446 10440 10435 10429 10424 10419 10413 10408 10403 10399 10395 10391 10387 10383 10379